Date String (YYYY-MM-DD hh:mm:ss) UTC,Instrument flags,absolute air pressure of the measurement (hPa),sample flow rate (lpm),inlet stack bypass flow (lpm),air temperature of the measurement (°C),ambient temperature measured by the external sensor (°C),aerosol sample conditioner tube jacket temperature (°C),OPC LED temperature (°C),internal box temperature (°C),relative humidity of the measurement (%),span deviation,mass concentration of particles derived from Lorenz-Mie calculation of OPC scattering (μg/m³),mass concentration of particles derived from Lorenz-Mie calculation of OPC scattering (μg/m³),mass concentration of particles derived from Lorenz-Mie calculation of OPC scattering (μg/m³)
DateTimeUTC,F1_M11,P_M11,Q1_M11,Q2_M11,T1_M11,T2_M11,T3_M11,T4_M11,T5_M11,U1_M11,ZSPAN_M11,X2_M11,X0_M11,X1_M11
2024-05-25 18:00:00,SystemResetWarning,0819.3,5.00,000.00,031.1,030.4,000.0,039.4,032.8,014.6,0000.0,0003.82,0015.82,0001.74
2024-05-25 18:01:00,SystemResetWarning,0819.3,5.01,000.00,031.2,030.4,000.0,039.4,032.8,014.4,0000.0,0003.85,0016.86,0001.72
2024-05-25 18:02:00,SystemResetWarning,0819.4,4.99,000.00,031.2,030.5,000.0,039.5,032.8,014.9,0000.0,0003.86,0017.64,0001.73
2024-05-25 18:03:00,SystemResetWarning,0819.3,5.00,000.00,031.2,030.5,000.0,039.5,032.8,015.1,0000.0,0003.91,0018.36,0001.74
2024-05-25 18:04:00,SystemResetWarning,0819.5,4.99,000.00,031.2,030.5,000.0,039.5,032.8,015.2,0000.0,0003.93,0019.57,0001.74
2024-05-25 18:05:00,SystemResetWarning,0819.5,5.00,000.00,031.2,030.5,000.0,039.5,032.9,015.1,0000.0,0003.95,0020.92,0001.74
2024-05-25 18:06:00,SystemResetWarning,0819.5,5.00,000.00,031.2,030.5,000.0,039.5,032.9,015.4,0000.0,0003.97,0021.07,0001.75
2024-05-25 18:07:00,SystemResetWarning,0819.7,5.00,000.00,031.2,030.5,000.0,039.5,032.9,014.4,0000.0,0003.97,0020.67,0001.74
2024-05-25 18:08:00,SystemResetWarning,0819.7,5.00,000.00,031.3,030.5,000.0,039.5,032.9,014.7,0000.0,0003.96,0018.96,0001.75
2024-05-25 18:09:00,SystemResetWarning,0819.5,5.01,000.00,031.3,030.6,000.0,039.5,032.9,015.2,0000.0,0003.99,0018.19,0001.75
2024-05-25 18:10:00,SystemResetWarning,0819.5,5.00,000.00,031.3,030.6,000.0,039.5,032.9,014.9,0000.0,0004.09,0019.54,0001.78
2024-05-25 18:11:00,SystemResetWarning,0819.5,5.01,000.00,031.3,030.6,000.0,039.6,032.9,015.2,0000.0,0004.13,0021.52,0001.78
2024-05-25 18:12:00,SystemResetWarning,0819.4,5.00,000.00,031.3,030.6,000.0,039.6,033.0,014.9,0000.0,0004.08,0022.50,0001.79
2024-05-25 18:13:00,SystemResetWarning,0819.4,4.99,000.00,031.3,030.6,000.0,039.6,033.0,014.5,0000.0,0003.99,0021.60,0001.78
2024-05-25 18:14:00,SystemResetWarning,0819.4,5.00,000.00,031.3,030.6,000.0,039.6,033.0,014.2,0000.0,0003.99,0021.75,0001.78
2024-05-25 18:15:00,SystemResetWarning,0819.5,5.02,000.00,031.3,030.6,000.0,039.6,033.0,014.1,0000.0,0004.03,0022.02,0001.79
2024-05-25 18:16:00,SystemResetWarning,0819.3,5.01,000.00,031.3,030.6,000.0,039.6,033.0,014.1,0000.0,0004.09,0022.20,0001.81
2024-05-25 18:17:00,SystemResetWarning,0819.3,5.00,000.00,031.4,030.6,000.0,039.6,033.0,014.7,0000.0,0004.12,0022.63,0001.81
2024-05-25 18:18:00,SystemResetWarning,0819.3,5.00,000.00,031.4,030.6,000.0,039.6,033.0,014.8,0000.0,0004.09,0023.05,0001.82
2024-05-25 18:19:00,SystemResetWarning,0819.3,5.00,000.00,031.4,030.6,000.0,039.7,033.0,014.5,0000.0,0004.10,0023.55,0001.80
2024-05-25 18:20:00,SystemResetWarning,0819.3,4.99,000.00,031.4,030.6,000.0,039.7,033.0,014.6,0000.0,0004.12,0025.04,0001.79
2024-05-25 18:21:00,SystemResetWarning,0819.3,5.00,000.00,031.4,030.7,000.0,039.7,033.0,014.5,0000.0,0004.08,0024.06,0001.77
2024-05-25 18:22:00,SystemResetWarning,0819.3,5.00,000.00,031.4,030.7,000.0,039.7,033.0,014.5,0000.0,0004.11,0022.69,0001.77
2024-05-25 18:23:00,SystemResetWarning,0819.3,5.00,000.00,031.4,030.7,000.0,039.7,033.0,014.3,0000.0,0004.17,0021.85,0001.77
2024-05-25 18:24:00,SystemResetWarning,0819.2,5.01,000.00,031.4,030.7,000.0,039.7,033.0,014.3,0000.0,0004.24,0022.57,0001.77
2024-05-25 18:25:00,SystemResetWarning,0819.2,4.99,000.00,031.4,030.7,000.0,039.7,033.0,014.6,0000.0,0004.30,0022.65,0001.79
2024-05-25 18:26:00,SystemResetWarning,0819.2,4.99,000.00,031.5,030.7,000.0,039.7,033.1,014.6,0000.0,0004.38,0022.19,0001.79
2024-05-25 18:27:00,SystemResetWarning,0819.2,5.00,000.00,031.5,030.7,000.0,039.7,033.1,014.5,0000.0,0004.39,0023.03,0001.79
2024-05-25 18:28:00,SystemResetWarning,0819.2,5.00,000.00,031.5,030.7,000.0,039.7,033.1,015.3,0000.0,0004.38,0022.12,0001.80
2024-05-25 18:29:00,SystemResetWarning,0819.2,5.00,000.00,031.5,030.7,000.0,039.8,033.1,014.4,0000.0,0004.41,0021.73,0001.80
2024-05-25 18:30:00,SystemResetWarning,0819.0,5.03,000.00,031.5,030.7,000.0,039.8,033.1,014.8,0000.0,0004.40,0021.83,0001.80
2024-05-25 18:31:00,SystemResetWarning,0819.1,4.99,000.00,031.5,030.8,000.0,039.8,033.1,015.3,0000.0,0004.34,0021.42,0001.82
2024-05-25 18:32:00,SystemResetWarning,0819.1,4.99,000.00,031.5,030.8,000.0,039.8,033.1,014.7,0000.0,0004.35,0022.58,0001.83
2024-05-25 18:33:00,SystemResetWarning,0819.0,5.00,000.00,031.5,030.8,000.0,039.8,033.1,014.2,0000.0,0004.40,0024.98,0001.83
2024-05-25 18:34:00,SystemResetWarning,0819.0,5.00,000.00,031.5,030.8,000.0,039.8,033.1,013.8,0000.0,0004.43,0025.26,0001.83
2024-05-25 18:35:00,SystemResetWarning,0819.0,5.00,000.00,031.5,030.8,000.0,039.8,033.1,014.2,0000.0,0004.46,0026.23,0001.85
2024-05-25 18:36:00,SystemResetWarning,0819.0,5.00,000.00,031.5,030.8,000.0,039.8,033.1,014.1,0000.0,0004.53,0025.98,0001.85
2024-05-25 18:37:00,SystemResetWarning,0818.9,5.00,000.00,031.5,030.8,000.0,039.8,033.2,014.1,0000.0,0004.54,0027.44,0001.86
2024-05-25 18:38:00,SystemResetWarning,0819.0,5.00,000.00,031.6,030.8,000.0,039.8,033.2,014.4,0000.0,0004.52,0026.95,0001.87
2024-05-25 18:39:00,SystemResetWarning,0819.3,5.00,000.00,031.6,030.8,000.0,039.8,033.2,014.3,0000.0,0004.50,0026.31,0001.87
2024-05-25 18:40:00,SystemResetWarning,0819.4,5.01,000.00,031.6,030.8,000.0,039.9,033.2,014.5,0000.0,0004.51,0026.51,0001.87
2024-05-25 18:41:00,SystemResetWarning,0819.3,5.00,000.00,031.6,030.8,000.0,039.9,033.2,015.4,0000.0,0004.54,0026.22,0001.87
2024-05-25 18:42:00,SystemResetWarning,0819.1,5.01,000.00,031.6,030.9,000.0,039.9,033.2,014.9,0000.0,0004.59,0026.97,0001.89
2024-05-25 18:43:00,SystemResetWarning,0819.1,4.99,000.00,031.6,030.9,000.0,039.9,033.2,014.4,0000.0,0004.55,0027.04,0001.90
2024-05-25 18:44:00,SystemResetWarning,0818.9,4.99,000.00,031.6,030.9,000.0,039.9,033.2,014.4,0000.0,0004.45,0023.91,0001.90
2024-05-25 18:45:00,SystemResetWarning,0819.0,4.99,000.00,031.6,030.9,000.0,039.9,033.2,014.6,0000.0,0004.38,0024.47,0001.90
2024-05-25 18:46:00,SystemResetWarning,0819.0,5.01,000.00,031.6,030.9,000.0,039.9,033.2,015.4,0000.0,0004.38,0024.24,0001.88
2024-05-25 18:47:00,SystemResetWarning,0819.0,5.00,000.00,031.6,030.9,000.0,039.9,033.2,014.6,0000.0,0004.26,0024.46,0001.86
2024-05-25 18:48:00,SystemResetWarning,0819.0,5.01,000.00,031.7,030.9,000.0,039.9,033.2,014.4,0000.0,0004.20,0023.70,0001.86
2024-05-25 18:49:00,SystemResetWarning,0819.0,5.00,000.00,031.7,030.9,000.0,040.0,033.2,015.1,0000.0,0004.21,0022.69,0001.86
2024-05-25 18:50:00,SystemResetWarning,0819.0,5.01,000.00,031.7,030.9,000.0,040.0,033.2,014.6,0000.0,0004.27,0023.25,0001.88
2024-05-25 18:51:00,SystemResetWarning,0819.0,5.00,000.00,031.7,030.9,000.0,040.0,033.3,014.5,0000.0,0004.27,0024.43,0001.90
2024-05-25 18:52:00,SystemResetWarning,0819.0,4.99,000.00,031.7,030.9,000.0,040.0,033.3,014.3,0000.0,0004.27,0026.37,0001.91
2024-05-25 18:53:00,SystemResetWarning,0819.0,5.00,000.00,031.7,031.0,000.0,040.0,033.3,015.0,0000.0,0004.27,0027.65,0001.91
2024-05-25 18:54:00,SystemResetWarning,0819.0,4.99,000.00,031.6,029.8,000.0,040.1,032.6,015.1,0000.0,0004.29,0026.88,0001.92
2024-05-25 18:55:00,SystemResetWarning,0819.0,5.01,000.00,031.1,027.4,000.0,040.1,031.4,014.6,0000.0,0004.35,0027.15,0001.93
2024-05-25 18:56:00,SystemResetWarning,0819.1,5.01,000.00,030.7,027.1,000.0,040.0,031.2,014.6,0000.0,0004.31,0026.32,0001.93
2024-05-25 18:57:00,SystemResetWarning,0819.1,5.00,000.00,030.6,027.6,000.0,039.8,031.4,015.4,0000.0,0004.29,0026.37,0001.96
2024-05-25 18:58:00,SystemResetWarning,0819.2,5.00,000.00,030.6,028.0,000.0,039.7,031.7,015.1,0000.0,0004.31,0026.28,0001.99
2024-05-25 18:59:00,SystemResetWarning,0819.1,5.00,000.00,030.6,028.4,000.0,039.5,031.9,015.5,0000.0,0004.32,0027.59,0002.00
